Theta_e
318 320 320 320 322 324 323 321 321 322 322 324 322 321 319 322 322 316 316 317 316 311 324 316 314 314 314 314 317 312 315 314 312 313 312 311 312 313 319 314 316 315 312 313 312 312 308 307 310 314 314 316 316 315 317 318 319 320 321 324 326 329 328
321 321 323 325 326 324 323 321 320 321 322 322 321 323 321 319 328 321 316 316 316 315 328 320 315 315 314 314 314 314 313 312 314 312 312 312 312 313 313 314 311 310 310 311 311 312 311 308 307 307 311 314 315 315 316 317 318 319 320 322 324 332 333
321 319 318 319 319 318 321 321 320 321 321 322 320 322 323 320 322 324 319 316 317 316 327 320 315 315 315 315 314 313 317 313 314 315 314 312 313 313 312 312 312 311 310 311 310 310 310 309 308 308 309 309 309 313 315 316 318 319 319 320 322 325 328
322 320 321 321 318 318 319 321 320 320 320 321 321 322 319 322 320 325 322 317 317 323 327 322 318 316 316 315 315 315 317 315 314 314 317 313 314 316 312 313 312 311 311 309 310 310 310 310 308 308 309 309 310 310 314 316 319 318 318 319 321 325 328
321 323 321 321 319 319 318 319 318 318 321 320 321 321 322 321 324 322 324 322 321 320 319 320 318 316 316 316 315 317 317 315 315 321 314 313 311 312 311 312 313 312 312 311 312 311 312 312 310 309 309 310 310 309 312 314 316 315 318 319 321 324 329
322 322 322 320 320 319 319 319 318 319 319 320 321 321 323 321 323 324 321 321 319 320 321 317 317 317 316 316 316 316 316 316 316 315 316 316 314 315 314 312 313 312 314 311 312 312 310 310 312 309 309 308 309 310 311 310 315 316 316 319 323 325 328
325 323 322 322 322 320 320 321 320 320 320 321 321 321 323 323 324 324 325 322 320 319 321 319 318 318 317 316 317 317 316 316 314 314 315 316 315 314 313 314 313 313 314 313 313 312 313 312 310 309 309 308 307 308 309 310 311 314 318 317 320 327 329
324 324 323 323 322 322 321 321 321 320 320 322 322 323 325 324 324 323 323 322 321 320 319 320 321 320 319 319 319 317 317 316 314 315 314 314 315 315 314 314 316 315 314 313 313 313 313 313 313 312 311 308 309 306 309 309 309 311 313 316 318 325 323
328 328 327 327 327 324 324 323 323 322 322 323 323 324 324 325 324 323 324 324 323 321 321 320 319 319 318 317 317 317 317 320 316 315 315 315 315 315 315 315 314 315 316 315 315 315 314 314 314 312 313 311 308 306 307 309 309 312 313 315 319 319 321
324 325 326 325 325 324 324 323 323 323 323 323 324 325 325 325 324 324 323 323 323 323 322 322 321 319 318 317 317 316 316 317 318 317 317 316 316 316 315 315 315 316 316 316 316 317 316 315 315 314 314 313 311 308 307 307 308 310 314 314 315 320 317
324 325 324 325 325 324 323 323 323 323 324 325 326 326 327 326 325 329 326 325 324 323 323 323 323 322 320 318 317 317 317 317 317 317 318 317 316 316 318 317 317 316 317 317 316 317 317 317 316 315 314 314 313 311 309 307 308 308 312 314 315 317 320
323 324 324 325 324 323 324 324 323 324 324 325 326 326 326 325 326 325 324 325 325 324 323 323 323 323 322 320 320 319 318 317 316 316 317 317 318 318 317 316 317 316 317 317 317 317 317 318 317 316 314 314 313 313 312 310 307 312 311 314 316 315 318
324 324 324 323 322 323 324 324 324 324 324 326 325 325 324 325 325 325 325 325 325 325 324 324 324 323 322 321 321 320 320 318 317 316 317 317 317 317 317 316 317 317 317 317 317 317 317 317 318 316 315 314 314 313 314 311 309 310 314 313 315 316 316
323 323 323 323 323 322 323 325 324 324 324 324 324 324 324 325 325 325 325 325 325 325 325 325 325 324 323 323 323 321 321 319 317 317 318 317 318 317 317 316 316 317 317 316 316 317 316 317 317 317 317 314 314 313 313 312 310 310 313 315 315 315 317
323 322 322 321 322 322 322 322 323 325 323 324 324 324 324 324 324 323 323 324 324 324 324 324 324 324 323 323 323 323 322 321 319 319 318 317 319 318 318 317 317 317 317 317 317 316 316 317 316 316 316 315 314 314 314 313 311 311 310 314 313 314 314
321 320 321 320 322 322 323 323 324 324 324 324 325 325 325 324 324 324 323 324 323 323 323 323 323 323 323 322 322 323 323 322 321 321 320 320 320 320 318 318 317 318 318 318 318 318 317 316 316 315 316 316 315 315 315 313 313 311 311 312 315 314 315
320 321 322 322 323 322 322 322 325 324 325 324 323 324 324 324 324 323 323 322 322 321 321 320 320 320 320 321 321 321 322 322 321 321 321 321 321 321 319 318 318 318 319 318 318 318 318 317 316 315 315 315 316 315 316 315 313 312 313 311 313 314 315
321 321 322 321 322 323 323 324 325 323 323 323 322 323 324 324 323 322 321 321 320 319 319 319 319 319 319 319 319 320 320 320 321 321 321 320 322 321 320 320 319 319 318 317 318 318 318 317 317 316 315 315 315 315 316 316 315 314 312 311 312 315 316
321 321 322 322 322 322 322 322 322 323 322 321 321 322 322 323 323 321 320 320 319 318 318 317 317 318 319 319 319 320 320 320 320 320 320 320 320 321 320 320 320 320 319 318 319 319 319 317 317 316 316 317 316 316 315 315 315 314 313 312 312 312 315
320 321 322 321 321 321 321 321 321 321 322 321 321 321 321 321 321 320 319 318 317 316 316 316 316 317 318 318 318 318 318 318 318 318 319 319 320 320 320 320 321 321 320 320 319 319 319 319 319 319 319 319 319 317 316 315 314 313 311 311 312 313 312
320 320 320 320 319 319 319 319 320 320 320 319 319 320 320 319 319 317 316 315 315 314 313 312 313 314 316 316 316 315 315 315 315 315 316 316 317 318 319 319 321 323 324 323 321 321 321 320 320 320 321 320 319 317 316 316 315 314 312 311 310 311 312
320 320 319 318 317 317 317 317 317 318 318 319 320 319 320 318 315 314 313 313 311 311 310 310 311 313 315 313 314 313 313 312 313 313 313 313 314 315 316 317 321 324 324 322 320 318 318 317 317 316 316 318 318 318 317 317 316 314 313 311 310 311 310
318 318 317 317 316 315 315 315 315 315 315 317 318 318 317 315 313 311 310 309 309 309 308 309 311 308 312 314 311 311 311 311 311 311 311 311 312 313 314 314 318 324 323 321 318 313 310 311 313 314 314 314 315 315 316 316 316 316 315 313 312 313 312
317 317 317 316 315 314 313 313 313 314 314 316 316 316 313 311 310 310 309 307 307 307 307 308 303 298 300 306 310 309 309 308 309 309 309 309 309 311 312 313 314 316 319 320 316 311 309 308 306 306 307 310 312 314 313 313 314 316 314 314 315 314 313
316 315 315 314 313 312 312 312 312 313 315 315 315 314 312 310 309 308 308 307 307 307 307 305 297 298 299 299 306 309 308 307 307 307 308 308 308 309 310 312 312 312 312 314 314 310 309 307 305 305 305 305 305 304 304 309 311 312 313 312 312 313 313
313 313 312 312 312 311 310 311 312 313 313 314 314 312 310 309 308 308 307 306 306 307 306 303 297 298 298 297 299 306 306 306 306 306 306 306 307 306 307 309 311 310 309 312 312 308 306 305 306 305 306 307 307 306 300 298 299 309 312 311 310 311 312
311 311 311 310 310 309 309 308 309 311 313 313 312 311 310 309 308 308 307 307 306 306 305 303 297 297 297 297 297 300 304 304 304 304 304 305 306 306 306 308 309 308 308 308 309 304 302 302 303 304 305 306 306 307 305 303 303 303 308 311 310 309 312
310 309 309 308 308 307 307 307 308 310 311 312 311 309 308 308 309 309 307 306 305 304 305 297 295 296 296 297 297 301 303 303 303 303 303 303 304 305 305 307 308 306 306 306 306 300 300 299 301 303 304 304 304 306 307 309 310 311 311 312 312 312 312
309 308 308 307 306 305 305 307 307 309 310 309 311 311 310 309 308 307 306 305 303 303 302 292 292 294 296 297 299 304 302 302 302 302 302 302 303 303 305 308 306 305 304 304 302 295 298 302 302 302 303 303 304 305 307 308 303 303 309 309 310 310 310
308 308 307 306 305 305 305 305 306 308 308 309 309 309 309 309 309 307 307 304 303 302 302 294 289 293 295 297 299 302 302 302 302 301 301 302 302 302 305 308 306 303 303 302 299 293 294 304 303 303 302 303 305 306 307 308 303 300 300 299 298 296 296
308 307 306 305 305 305 305 304 305 308 307 307 308 308 309 309 309 309 305 303 302 302 301 298 290 293 294 297 303 301 302 301 301 301 301 302 302 302 304 309 308 303 301 301 295 294 295 304 303 303 303 303 304 305 305 306 306 307 302 301 301 300 299
307 306 305 306 305 305 304 304 306 305 306 308 308 309 311 309 309 309 309 309 310 303 302 301 293 292 294 296 302 301 302 301 301 300 300 302 302 301 302 304 307 303 301 299 293 294 295 303 303 302 302 303 303 303 304 304 304 306 307 307 308 309 308
307 306 305 305 305 304 306 304 303 303 304 307 307 308 309 307 307 307 306 304 305 301 300 301 298 292 295 295 297 304 301 301 300 300 300 302 300 301 301 302 304 298 293 293 293 293 294 295 303 302 302 302 301 302 305 304 306 307 306 306 307 308 308
308 307 307 306 306 306 304 303 303 303 303 303 304 304 304 305 306 305 301 302 304 304 306 300 298 291 294 295 295 299 301 301 299 300 299 300 299 299 300 300 301 302 293 293 294 294 294 294 299 303 301 301 301 301 302 305 305 307 305 306 306 306 307
309 309 309 308 305 303 303 303 303 302 301 301 301 301 301 300 299 299 298 299 303 301 305 311 304 297 294 295 294 295 301 300 299 302 300 300 299 300 299 300 301 300 293 293 293 294 294 295 296 302 299 294 295 294 305 305 304 304 304 304 304 304 304
310 310 308 307 304 303 303 303 302 301 300 299 299 298 297 297 297 297 299 299 299 301 300 303 300 302 297 294 294 294 293 296 294 302 299 299 299 300 300 299 302 301 293 293 294 294 294 295 300 298 293 294 295 295 301 303 302 302 302 302 301 301 301
308 308 307 306 305 303 302 301 301 299 298 299 298 297 297 297 297 297 298 298 300 300 300 299 301 299 299 295 294 293 293 293 294 299 301 300 300 300 300 300 300 293 293 293 294 294 295 296 297 294 294 294 296 298 302 301 301 300 300 299 299 298 298
Wind_Speed
2 4 5 4 2 2 3 4 0 1 3 3 3 2 2 2 1 0 1 1 2 2 2 3 3 4 4 2 2 3 3 4 4 5 4 5 5 3 3 4 4 3 4 4 2 2 2 2 6 4 2 5 5 2 2 5 5 5 6 5 3 3 2
2 4 4 3 2 2 4 4 4 3 2 3 3 3 1 3 2 2 2 2 2 4 1 3 2 3 3 4 5 5 4 3 3 2 4 3 4 4 4 4 3 4 3 3 3 3 4 3 3 2 6 6 5 3 5 3 3 4 3 4 3 2 2
2 3 2 4 3 2 3 4 4 5 4 3 3 2 3 2 4 2 3 3 4 4 2 3 3 3 4 4 3 3 2 3 3 1 3 2 1 1 2 2 5 4 4 4 4 4 2 4 2 5 4 5 5 7 5 5 7 6 4 3 3 2 3
4 2 4 5 4 3 3 4 4 5 4 4 4 3 2 2 3 3 3 4 3 3 3 3 4 4 4 3 3 3 3 3 2 3 3 2 1 1 2 3 2 3 1 2 3 2 2 3 3 4 5 2 4 6 6 6 7 6 4 3 3 3 3
3 3 3 3 3 3 3 4 4 4 4 4 3 4 4 3 3 3 3 3 4 4 5 4 4 4 4 3 3 3 3 2 1 1 2 2 2 1 0 1 1 2 0 1 2 2 1 2 0 5 5 4 3 3 6 7 5 4 4 4 3 2 2
3 4 3 3 3 2 3 3 4 4 4 4 4 4 5 4 4 4 4 4 5 5 5 4 4 4 4 4 4 4 4 5 4 4 3 4 2 2 2 2 2 3 3 3 2 2 1 1 0 3 3 0 3 6 4 2 3 5 2 3 2 0 1
4 3 4 3 3 3 2 3 3 3 4 4 4 5 5 3 3 5 4 5 5 5 4 5 5 4 4 5 4 5 5 5 3 5 5 5 4 4 2 3 3 3 4 3 3 3 3 2 3 3 4 3 1 4 3 3 2 3 3 2 2 1 2
4 3 4 4 4 3 3 4 4 4 4 5 4 5 4 4 5 4 5 5 5 5 5 5 4 4 4 4 4 5 5 4 5 4 5 5 5 5 5 5 4 4 5 3 4 5 4 4 4 3 1 5 5 2 4 2 3 1 3 4 2 1 1
2 2 3 3 4 3 4 4 5 4 5 5 5 4 6 3 4 5 4 5 5 5 5 5 5 5 5 5 5 5 6 4 5 6 6 5 6 7 6 4 3 6 5 4 4 5 5 5 4 3 3 2 2 6 3 5 3 3 1 1 2 2 1
4 4 5 4 4 3 3 4 4 5 4 4 5 4 5 5 4 4 5 5 5 5 5 6 6 6 5 5 5 6 7 6 5 7 6 6 6 6 5 6 6 6 6 4 4 5 5 4 4 4 5 5 4 2 3 3 5 3 3 1 2 2 2
4 5 4 5 3 3 4 4 3 5 5 5 4 4 4 5 5 5 5 6 5 5 6 5 5 6 5 5 6 6 7 5 6 6 6 6 7 5 6 5 5 6 6 5 6 5 5 5 4 5 5 5 5 6 4 4 5 3 5 3 4 3 2
4 4 4 3 3 3 5 4 4 5 5 4 4 4 4 5 5 5 5 6 5 6 5 6 5 5 5 6 6 7 6 5 6 7 7 5 6 5 6 7 6 7 6 6 6 5 5 4 5 4 4 4 5 7 6 4 4 4 4 5 4 4 4
4 3 3 3 4 4 5 4 5 5 5 4 4 4 4 5 4 5 5 5 6 5 6 6 5 5 5 6 6 6 6 4 6 8 8 5 5 5 6 7 8 7 6 4 5 5 5 5 4 5 5 5 6 6 5 5 7 9 5 6 6 6 5
5 3 3 3 3 3 4 3 4 4 4 4 3 4 4 4 4 4 5 5 5 6 6 6 4 4 5 6 6 6 6 5 6 7 6 8 6 6 7 8 9 8 3 4 6 5 5 6 4 4 4 4 6 5 6 6 7 8 7 4 6 6 3
3 2 3 4 3 3 3 3 4 3 4 4 3 4 4 4 4 4 4 5 5 5 5 6 5 4 5 6 6 4 5 5 6 7 6 8 8 5 5 7 9 7 2 6 6 6 5 5 4 4 4 4 5 5 4 5 7 6 10 4 5 3 5
2 2 2 2 2 3 3 4 3 3 3 3 3 3 4 4 5 5 6 6 6 6 6 6 6 5 5 5 6 6 5 5 5 6 6 7 6 5 5 6 7 6 4 5 6 5 3 4 3 5 6 4 5 6 5 6 5 6 8 9 5 5 5
1 1 1 1 2 3 3 3 1 4 4 5 6 5 6 6 7 7 7 7 7 7 8 7 7 7 7 7 6 6 6 5 5 5 5 6 6 5 5 5 6 5 4 5 6 5 3 2 4 5 5 5 5 6 5 5 6 6 5 8 8 5 5
0 1 1 2 1 2 4 5 4 6 5 7 6 6 7 7 8 8 7 8 8 8 8 8 8 8 7 6 7 7 7 6 6 6 5 5 5 5 5 5 6 5 4 4 5 5 4 4 4 4 5 4 4 5 4 4 5 5 6 8 9 6 4
2 3 2 3 5 5 5 5 6 5 6 7 7 7 7 7 6 8 8 8 8 8 8 8 8 7 7 6 6 6 6 7 7 7 7 7 7 6 6 6 5 5 4 5 6 6 5 4 4 5 6 5 4 4 5 5 4 5 6 7 7 8 5
3 4 5 5 5 5 6 6 6 6 5 7 7 7 7 8 6 8 8 8 8 8 8 8 8 9 8 8 8 8 7 7 7 6 7 7 7 7 7 8 8 7 7 6 6 7 7 7 6 7 7 7 7 7 6 5 4 5 6 6 6 6 7
6 6 5 5 6 6 6 6 6 5 6 7 7 7 7 8 6 8 8 7 7 7 8 9 8 8 7 8 7 7 7 8 7 8 8 8 8 8 8 9 8 8 8 7 8 8 8 8 6 6 6 6 6 6 5 6 6 6 6 6 6 8 5
6 6 6 6 6 7 6 6 6 6 6 6 6 7 7 7 8 8 7 6 8 8 8 7 6 6 6 8 7 8 8 8 8 8 8 8 8 7 8 9 9 9 11 14 16 13 11 11 7 7 7 6 7 7 6 6 6 6 5 4 7 6 7
7 6 7 7 7 6 7 6 7 7 7 7 7 7 8 7 8 7 7 8 7 7 7 6 8 12 10 6 7 6 7 7 7 7 7 7 8 8 7 8 9 16 14 14 15 13 12 12 11 7 5 6 7 6 6 6 6 6 6 7 6 7 8
7 7 7 7 6 7 7 7 7 7 7 7 8 7 7 8 7 7 7 7 8 7 6 6 10 11 12 11 7 7 7 7 7 7 7 7 7 7 8 8 8 11 12 11 10 13 12 12 12 12 12 10 7 6 6 7 6 6 6 6 6 7 7
8 7 7 7 7 7 6 7 8 7 8 9 7 7 8 7 7 6 6 7 8 6 6 8 10 11 11 11 8 6 6 6 7 7 7 7 6 6 7 7 6 6 8 11 9 9 12 13 13 13 13 13 12 11 6 4 6 7 7 7 7 6 7
9 8 7 7 6 7 8 7 7 8 9 7 7 8 7 7 7 6 7 8 7 6 6 8 9 10 10 10 10 7 6 6 6 7 7 7 7 7 6 6 6 6 7 14 10 9 9 11 13 13 12 12 11 10 11 10 5 5 7 7 8 8 7
9 8 7 7 7 7 8 7 6 7 8 7 8 7 6 7 6 6 6 7 6 5 5 6 8 9 9 9 9 7 6 6 6 6 7 7 7 7 7 6 7 7 7 8 7 9 9 8 9 9 10 9 8 10 10 9 9 8 4 5 6 8 8
9 8 7 7 7 8 8 7 7 6 7 8 8 7 7 7 5 6 6 6 6 6 4 6 7 9 9 8 8 6 5 5 6 6 6 6 6 6 7 5 6 7 7 7 8 10 8 8 8 7 8 9 8 7 6 6 6 7 7 5 5 7 8
9 8 8 8 8 8 7 8 9 7 7 6 5 6 5 5 6 6 5 5 6 6 4 7 7 7 7 7 7 5 5 6 7 6 6 6 6 6 6 6 7 8 7 7 12 13 9 6 5 7 9 8 8 7 5 3 7 8 7 7 6 6 6
9 9 9 9 8 8 8 7 7 6 8 7 7 6 5 5 5 6 5 5 7 6 5 5 6 6 6 5 5 5 5 5 6 6 5 6 5 6 6 7 7 6 7 8 12 12 11 8 7 8 8 9 7 6 8 8 9 7 9 10 10 9 10
10 9 9 10 9 6 5 5 7 6 9 8 7 6 6 5 4 5 5 5 5 6 4 4 5 6 6 6 5 5 4 5 6 6 6 6 5 5 7 14 12 7 7 7 10 11 11 8 8 8 8 9 10 9 9 10 9 8 8 6 7 8 7
10 9 9 8 8 8 7 6 4 4 6 7 7 6 5 6 5 3 4 4 7 6 4 3 3 5 6 7 6 4 4 5 6 6 6 6 5 5 6 8 13 11 8 7 11 11 12 8 7 7 6 7 8 9 8 8 10 12 12 12 10 11 11
9 9 9 8 8 8 6 6 5 5 5 6 6 5 5 5 6 4 4 6 4 3 4 3 2 5 7 9 8 4 4 6 6 5 4 4 5 6 5 6 7 11 12 11 11 12 12 11 7 6 7 9 10 9 9 8 10 9 9 10 10 11 11
10 8 8 8 6 6 6 7 6 6 6 5 5 5 4 2 1 2 6 3 2 1 2 3 3 3 7 8 8 6 5 5 4 3 3 4 4 4 5 5 4 9 11 10 11 12 12 11 10 7 6 7 6 8 9 8 11 12 9 10 9 8 9
7 7 7 6 7 5 4 5 6 6 5 6 6 5 3 2 3 4 4 4 3 3 5 5 4 3 6 7 8 8 5 4 3 3 4 4 4 4 4 4 4 8 11 10 10 11 12 12 12 7 9 10 10 13 8 8 8 9 9 8 8 8 9
7 7 7 6 8 7 6 6 5 6 6 6 6 5 4 4 5 5 5 4 4 4 4 3 4 3 6 8 7 9 7 4 5 2 3 4 4 3 3 4 4 10 9 9 9 11 11 12 9 8 12 13 12 13 10 9 9 9 9 8 7 8 8
8 7 7 6 6 7 5 6 6 5 6 6 6 6 4 5 6 6 5 5 5 5 5 5 5 6 7 8 7 8 8 7 5 3 3 3 2 2 4 5 5 8 8 9 10 10 11 11 9 12 12 13 12 10 9 9 9 8 7 8 8 8 9
Wind_Direction
206 258 290 300 270 300 319 310 221 284 317 339 330 345 229 267 163 131 45 329 341 295 342 4 347 334 347 21 69 97 86 60 80 84 54 18 66 348 359 37 39 52 37 50 73 83 161 311 323 334 246 338 343 339 332 330 333 337 320 320 320 313 312
228 259 289 307 322 327 322 315 339 319 323 324 347 344 274 228 243 211 203 263 282 277 299 322 4 354 9 336 343 6 23 52 74 135 86 40 51 23 357 5 29 44 16 48 55 57 73 347 295 359 321 328 330 312 331 307 287 283 295 289 291 285 286
290 305 328 304 331 338 339 307 318 321 331 338 337 338 344 253 239 222 196 229 244 264 280 285 301 321 302 304 292 301 339 56 121 154 116 161 148 343 60 354 42 351 10 357 22 29 44 74 355 319 319 335 337 309 325 327 329 319 303 298 298 288 271
281 310 337 331 340 355 332 307 312 306 312 306 318 318 287 292 246 225 214 229 236 245 266 269 265 257 271 269 292 308 308 333 18 112 105 124 152 90 63 65 72 93 109 65 304 327 34 333 355 320 317 279 277 306 298 310 304 295 290 291 288 272 237
245 267 266 270 291 294 298 301 311 322 314 315 307 304 301 287 246 255 251 230 235 243 250 238 248 238 249 245 275 283 286 270 250 220 164 163 159 137 216 173 165 180 324 183 218 154 252 295 307 299 304 310 303 243 278 312 285 291 311 307 292 282 351
235 229 241 258 254 258 274 293 318 312 318 331 311 322 279 260 242 247 254 245 249 239 243 239 247 238 241 236 248 254 267 268 255 243 273 277 207 220 249 204 177 177 217 216 165 181 92 113 116 316 291 111 294 311 305 13 326 313 284 329 331 120 105
237 224 240 235 264 242 232 262 256 258 280 261 276 270 263 260 237 238 244 249 245 251 245 242 250 248 231 234 235 239 244 245 247 236 247 266 257 245 189 236 225 218 238 197 193 166 184 184 280 255 298 314 261 297 297 325 322 344 324 339 346 160 144
233 236 243 229 251 266 256 248 263 250 247 269 253 270 265 239 244 245 241 248 253 248 248 252 253 253 245 246 243 244 256 248 240 247 252 250 269 265 241 235 264 247 249 218 185 215 187 198 210 207 201 316 328 332 322 311 309 217 265 295 315 316 74
243 240 256 249 246 224 248 226 257 249 244 263 275 275 280 255 251 246 244 244 248 250 246 246 252 251 247 242 254 252 261 237 237 241 248 243 255 257 257 251 238 260 253 235 216 220 206 206 204 176 169 163 246 307 331 315 342 300 239 303 304 251 260
238 243 250 263 262 252 235 242 246 257 262 254 269 269 280 283 272 261 261 260 252 243 247 244 243 244 241 241 249 250 253 252 240 247 248 244 247 252 256 247 242 256 260 239 228 223 222 210 209 199 187 209 178 243 292 297 301 280 298 211 286 287 236
237 245 244 256 273 286 274 258 258 270 256 251 243 263 261 278 284 278 268 273 267 260 251 253 241 244 238 244 247 251 249 252 253 257 245 239 250 242 249 256 240 252 254 234 238 224 216 218 212 203 202 193 173 208 210 258 278 219 265 274 208 256 303
240 249 254 259 271 266 272 269 259 261 283 281 270 274 274 271 274 277 273 281 285 278 274 265 258 255 239 254 251 255 257 242 249 262 256 239 252 234 245 253 249 250 248 249 251 242 229 214 220 210 217 180 195 204 206 204 263 264 176 260 261 227 252
252 245 254 250 263 253 268 298 309 318 303 320 314 298 290 291 291 291 277 267 276 270 267 266 260 262 260 252 260 263 266 245 254 261 272 257 259 249 248 253 253 251 249 240 262 255 253 235 222 223 205 203 211 207 196 194 222 259 213 225 258 274 226
262 262 269 255 275 326 346 316 284 259 292 297 289 288 277 272 276 278 294 296 294 298 291 289 257 246 246 259 256 252 266 246 248 261 261 272 252 243 246 254 263 260 277 258 257 263 257 250 237 245 240 215 228 202 193 199 227 254 269 209 249 255 281
269 331 339 6 357 297 274 270 261 276 282 291 284 292 301 310 319 323 324 326 320 310 308 299 304 276 268 271 275 257 258 246 246 258 261 268 274 264 262 271 276 289 227 243 262 266 271 284 280 271 248 227 245 245 208 218 232 251 270 265 253 237 268
20 28 28 330 303 271 262 271 291 298 328 330 341 354 355 13 21 30 31 21 9 1 351 342 335 333 313 298 297 298 288 274 267 275 274 273 281 284 265 256 271 282 260 257 260 263 283 292 291 263 266 240 244 242 208 208 233 251 262 273 263 273 250
58 52 331 245 254 275 306 324 345 71 71 66 58 42 45 45 51 51 50 37 33 28 21 17 16 17 5 349 333 328 326 316 302 292 295 298 301 299 277 279 274 277 275 274 285 293 280 225 256 262 261 259 251 260 242 204 217 236 260 280 272 248 275
133 176 227 234 291 65 80 86 78 82 82 70 60 61 52 50 55 50 47 39 34 30 25 21 24 20 19 15 12 8 3 358 355 348 342 331 332 329 315 301 312 317 302 291 292 292 288 270 262 265 268 267 263 261 254 235 228 218 242 253 274 267 257
190 202 180 115 114 104 92 85 81 67 72 80 70 62 67 56 56 59 51 44 40 34 29 27 27 22 17 19 26 27 27 28 26 27 22 18 17 8 12 2 340 333 334 319 305 299 295 289 279 282 286 282 268 259 268 261 244 247 238 255 261 283 265
183 140 128 120 106 94 85 81 79 76 68 77 78 77 70 71 56 64 55 49 42 35 32 28 24 21 19 19 23 26 26 26 28 28 25 24 21 19 18 19 14 9 357 339 324 317 315 314 307 299 295 298 298 296 292 277 270 252 248 255 263 255 272
121 121 113 106 96 89 84 77 76 74 77 74 75 79 81 77 66 62 58 55 45 43 41 34 24 18 22 23 27 28 27 27 25 26 24 23 21 19 17 17 13 15 14 26 25 21 15 2 356 336 336 330 314 305 297 301 290 271 268 263 263 282 271
115 112 110 102 93 87 84 83 79 76 72 76 76 79 78 79 77 69 60 54 52 47 46 37 22 5 19 30 31 34 30 29 29 26 20 18 18 18 19 20 14 23 33 40 35 30 25 23 13 1 354 346 340 330 318 300 293 286 277 264 283 271 272
116 113 107 102 101 98 95 92 87 81 75 78 83 83 81 75 74 77 73 59 56 51 45 39 23 31 32 41 35 35 36 31 27 27 24 18 13 11 11 20 17 26 26 24 23 15 11 8 8 6 341 339 339 333 326 323 316 312 303 293 263 273 281
120 112 114 110 106 103 101 98 93 89 87 86 90 86 88 84 78 75 72 71 63 55 44 27 28 38 37 34 42 38 38 31 26 26 24 22 16 2 3 6 10 10 10 15 9 2 354 355 349 344 338 332 325 323 323 321 314 318 317 309 312 300 288
119 119 115 111 108 106 103 95 92 94 96 92 88 93 86 87 88 84 82 73 66 58 52 28 34 42 43 39 39 44 37 33 27 25 15 17 8 3 358 360 5 7 4 5 4 351 345 341 339 334 330 326 325 320 316 294 311 316 317 318 314 310 311
124 121 117 113 112 106 99 96 100 103 95 100 102 94 100 96 89 86 84 81 71 56 57 26 33 45 47 44 41 47 36 29 31 16 16 9 6 2 359 358 0 7 358 2 1 350 344 337 334 333 330 327 323 329 336 326 286 262 296 302 303 300 300
125 124 121 115 112 106 99 99 102 102 108 108 105 108 108 100 98 92 91 93 86 69 60 17 32 45 48 49 47 48 35 34 26 23 16 7 2 3 359 355 360 359 358 0 4 354 344 339 338 334 337 337 333 338 340 332 326 315 288 294 301 299 303
126 124 121 119 112 109 112 113 108 112 120 122 123 128 125 117 109 101 100 100 95 76 49 22 37 43 44 48 52 53 38 32 29 28 24 12 4 360 352 356 10 3 355 356 12 360 347 343 338 334 331 337 334 340 328 334 339 334 327 318 304 296 297
127 127 126 122 118 124 131 129 127 128 115 112 114 116 110 112 116 112 110 109 97 80 46 27 33 37 41 44 48 46 38 33 28 19 17 14 5 356 347 14 22 12 4 1 3 357 355 336 338 341 345 340 340 336 338 330 321 319 316 311 310 306 306
133 134 134 130 134 139 133 131 123 127 115 122 129 127 135 125 133 129 117 111 100 84 61 18 14 21 29 47 61 48 41 37 29 24 7 4 4 3 352 26 34 20 13 14 358 356 357 360 1 5 352 348 341 345 349 346 353 340 325 317 308 299 293
137 140 142 142 144 135 122 118 143 148 133 139 136 149 141 135 142 136 125 113 108 103 80 41 23 12 18 33 58 50 33 44 40 16 359 11 7 13 16 29 35 28 20 7 356 9 9 13 22 8 2 354 3 360 355 349 345 338 341 329 320 319 305
141 143 140 140 134 140 151 149 137 116 124 131 140 148 148 137 152 154 145 114 104 100 91 70 40 5 26 28 39 38 31 34 34 14 357 1 7 18 9 13 23 25 20 5 12 18 18 20 34 17 356 3 1 359 352 334 342 344 347 351 353 357 2
142 143 147 146 150 146 136 127 131 125 121 131 144 153 151 151 154 166 83 58 64 119 110 100 87 13 34 31 24 38 32 38 16 358 1 16 4 8 11 5 7 15 8 9 16 22 24 24 32 17 17 23 5 351 339 336 350 348 347 360 359 5 5
147 150 144 144 138 136 138 139 144 132 130 124 124 125 125 126 136 66 62 91 156 204 210 131 89 59 40 38 26 34 36 37 4 2 4 19 27 9 360 0 336 11 5 6 18 23 25 27 27 31 21 16 352 310 306 354 355 1 5 4 5 2 4
134 131 119 131 140 137 145 146 142 137 130 129 120 111 88 53 55 48 56 46 14 353 333 7 74 47 45 40 29 29 37 17 332 332 7 37 18 22 356 348 330 2 3 13 17 25 25 24 23 32 7 358 350 355 357 3 360 6 10 9 6 7 5
123 128 149 165 143 145 150 132 120 119 123 111 109 101 67 58 61 53 45 34 42 19 14 10 58 20 28 33 25 26 30 23 343 13 69 42 10 343 320 337 341 3 2 13 21 25 27 21 24 13 4 2 1 355 1 13 9 11 12 9 8 8 6
141 144 156 151 142 140 136 115 106 119 120 121 113 90 71 89 81 74 66 46 27 32 35 46 41 36 30 30 20 23 26 19 28 32 62 63 15 345 353 0 349 344 1 15 19 19 21 23 13 6 4 2 1 5 12 11 15 11 6 9 9 7 4